Temperature
12 12 12 13 13 12 12 12 12 12 12 12 12 12 12 12 12 11 11 11 11 11 11 11 11 11 11 11 10 10 10 10 10 10 10 10 10 10 9 9 9 9 9
12 12 12 12 12 12 12 12 12 12 12 12 12 12 12 11 11 11 11 11 11 11 11 11 10 10 10 10 10 10 9 9 9 8 8 8 8 9 9 9 9 9 9
11 12 12 12 12 12 12 12 12 12 11 11 11 11 11 11 11 11 10 10 10 10 10 10 10 10 10 9 9 9 9 9 9 8 8 7 7 7 8 8 8 8 8
11 11 11 12 12 12 12 12 11 11 11 11 11 11 11 11 11 10 10 10 10 10 10 9 9 9 9 9 9 9 8 8 8 8 8 7 7 6 6 7 7 7 7
10 11 11 11 12 12 12 11 11 11 11 11 11 10 10 10 10 10 9 9 9 9 9 9 9 9 9 8 8 8 8 8 8 7 7 7 7 6 6 6 6 7 7
10 10 11 11 11 11 11 11 11 11 10 10 10 10 10 10 9 9 9 9 9 9 8 8 8 8 8 8 8 7 7 7 7 7 7 6 6 6 5 5 5 6 6
8 9 10 10 10 11 11 10 10 10 10 10 10 9 9 9 9 9 8 8 8 8 8 8 8 8 7 7 7 7 7 7 7 6 6 6 5 5 5 5 5 5 5
7 8 9 9 10 10 10 10 10 10 10 9 9 9 9 8 8 8 8 8 7 7 7 7 7 7 7 7 7 7 6 6 6 6 6 6 5 5 5 5 4 4 4
6 7 8 8 9 9 9 9 9 9 9 9 9 8 8 8 8 7 7 7 7 7 7 7 6 6 6 6 6 6 6 6 6 6 6 5 5 5 5 4 4 4 3
5 6 7 7 8 8 8 8 8 8 8 8 8 7 7 7 7 7 7 7 6 6 6 6 6 6 6 6 6 6 6 5 5 5 5 5 5 4 4 4 4 4 3
5 5 6 6 7 7 7 7 7 7 7 7 7 7 7 7 6 6 6 6 6 6 6 6 6 6 5 5 5 5 5 5 5 5 5 5 4 4 4 4 4 3 3
4 4 5 5 6 6 7 7 7 7 7 6 6 6 6 6 6 6 6 5 5 5 5 5 5 5 5 5 5 5 5 4 4 4 4 4 4 4 3 3 3 3 3
3 4 4 5 5 5 6 6 6 6 6 6 6 6 6 5 5 5 5 5 5 5 5 5 5 5 5 4 4 4 4 4 4 4 4 4 3 3 3 3 3 3 2
3 3 4 4 4 5 5 5 5 5 5 5 5 5 5 5 5 5 5 5 4 4 4 4 4 4 4 4 4 4 4 4 3 3 3 3 3 3 3 2 2 2 2
2 3 3 3 4 4 4 4 5 5 5 5 5 5 5 5 4 4 4 4 4 4 4 4 4 4 3 3 3 3 3 3 3 3 3 3 3 2 2 2 2 2 2
2 2 2 3 3 3 4 4 4 4 4 4 4 4 4 4 4 4 4 4 4 4 3 3 3 3 3 3 3 2 2 2 2 2 2 2 2 2 2 2 2 1 1
2 2 2 2 3 3 3 3 3 3 3 3 3 3 3 3 3 3 3 3 3 3 3 3 3 3 2 2 2 2 2 2 2 2 2 2 2 2 1 2 1 1 1
1 2 2 2 2 2 2 3 3 3 3 3 3 3 3 3 3 3 3 3 3 3 2 2 2 2 2 2 2 1 1 1 1 1 1 1 1 1 1 1 1 1 1
1 1 1 2 2 2 2 2 2 2 2 2 2 2 2 2 2 2 2 2 2 2 2 2 1 1 1 1 1 1 1 1 1 1 1 0 0 0 0 0 0 0 0
0 0 1 1 1 1 1 1 1 1 1 2 2 1 1 1 1 1 1 1 1 1 1 1 1 1 1 1 0 0 0 0 0 -0 -0 -0 -0 -0 -0 -0 -0 -0 -0
-0 -0 0 0 0 1 1 1 1 1 1 1 1 1 1 1 1 1 1 0 0 0 0 0 0 0 0 0 -0 -0 -1 -1 -1 -1 -1 -1 -1 -1 -1 -1 -1 -1 -1
-1 -1 -0 -0 -0 -0 0 0 0 0 0 0 0 0 0 -0 -0 0 0 -0 -0 -0 -0 -0 -0 -0 -0 -1 -1 -1 -1 -1 -1 -1 -1 -1 -1 -1 -1 -1 -2 -2 -2
-1 -1 -1 -1 -1 -1 -1 -1 -0 -0 -0 -0 -0 -0 -1 -1 -1 -1 -0 -1 -1 -1 -1 -1 -1 -1 -1 -1 -1 -2 -2 -2 -2 -2 -2 -2 -2 -2 -2 -2 -2 -2 -2
-2 -2 -1 -1 -1 -1 -1 -1 -1 -1 -1 -1 -1 -1 -1 -1 -1 -1 -1 -1 -1 -1 -2 -2 -2 -2 -2 -2 -2 -2 -2 -2 -2 -2 -2 -2 -2 -2 -2 -2 -2 -3 -3
-2 -2 -2 -2 -2 -2 -2 -2 -2 -2 -1 -1 -1 -1 -1 -1 -1 -1 -2 -2 -2 -2 -3 -3 -3 -3 -3 -3 -3 -2 -2 -2 -2 -2 -2 -2 -2 -3 -3 -3 -3 -3 -3
-3 -3 -3 -3 -3 -3 -2 -2 -2 -2 -2 -2 -2 -2 -2 -2 -2 -2 -2 -3 -3 -3 -3 -3 -3 -3 -3 -3 -3 -3 -3 -3 -3 -3 -3 -3 -3 -3 -3 -3 -3 -3 -3
Wind_Speed
6 4 5 6 6 6 7 7 7 6 5 3 3 2 1 1 0 0 1 2 3 3 3 1 1 1 1 1 1 1 0 1 1 1 2 3 3 2 2 2 2 3 4
4 4 5 5 7 8 8 8 7 7 6 4 3 2 2 1 1 0 1 1 1 2 2 2 2 1 1 1 1 1 1 0 1 1 1 3 4 3 3 2 3 3 3
7 6 6 6 7 8 9 9 8 7 6 5 4 3 3 2 1 0 1 1 0 1 2 2 2 1 2 2 2 2 2 1 1 0 1 1 3 4 3 2 3 3 3
5 5 6 7 8 8 8 8 8 7 6 7 6 6 4 3 3 2 1 1 1 0 1 2 2 2 2 2 2 2 2 2 2 1 1 2 2 2 4 3 3 3 4
5 6 7 8 7 6 7 7 7 6 6 7 7 6 4 2 1 1 1 0 1 1 1 1 1 2 2 2 2 2 2 2 3 2 2 1 2 2 3 5 5 4 4
3 4 4 4 4 4 5 6 7 6 6 6 6 6 6 4 3 2 1 0 1 1 1 1 1 1 2 2 3 3 3 3 3 3 3 2 2 2 2 4 7 7 5
2 2 3 4 5 5 5 6 7 6 5 5 5 5 6 5 5 3 2 1 1 1 2 1 1 1 2 2 2 2 3 3 3 4 3 4 4 3 3 4 6 7 6
1 2 3 4 5 5 5 6 7 5 5 5 4 4 4 3 3 3 3 2 2 2 2 2 2 2 2 2 2 2 3 3 4 4 4 4 4 4 4 4 4 6 6
2 2 2 2 3 4 4 6 6 5 4 4 4 3 3 3 3 2 2 1 1 1 1 2 2 2 2 2 2 2 3 3 4 5 5 4 4 4 4 4 4 4 7
3 3 3 2 2 3 3 4 4 4 4 3 3 3 3 2 2 2 1 1 1 1 1 1 2 2 2 2 3 3 3 4 4 4 4 4 4 4 4 4 4 4 6
2 3 3 3 3 4 4 4 4 4 3 3 2 3 2 2 2 1 1 1 1 1 1 2 2 2 3 3 3 3 3 4 4 4 5 5 5 4 4 3 4 4 4
3 4 4 4 4 4 4 4 4 4 3 2 3 2 2 2 2 1 0 1 1 1 2 2 2 2 3 3 3 4 4 4 5 5 5 5 4 4 4 3 4 4 5
4 5 5 4 4 4 4 4 3 3 3 3 3 3 2 2 1 0 1 1 1 2 2 2 2 3 3 3 3 4 4 5 5 5 5 5 4 5 4 4 4 4 5
4 4 4 3 3 3 3 4 3 3 3 3 3 2 1 1 0 1 1 1 1 2 2 2 2 3 3 3 3 3 4 4 4 4 4 4 4 4 4 4 4 4 4
4 3 3 3 3 3 3 3 3 3 3 3 3 2 1 1 1 1 1 1 1 2 2 2 2 2 2 3 3 3 3 3 3 3 3 3 4 5 5 4 4 4 4
2 2 3 3 2 2 2 2 2 2 3 3 2 2 2 2 2 1 1 1 2 2 2 2 2 3 3 4 5 4 2 3 3 3 3 3 4 5 7 7 7 6 5
2 2 1 1 1 1 1 2 2 2 3 3 2 3 2 2 2 2 2 2 2 2 2 2 2 3 4 6 5 5 3 2 2 2 3 4 4 5 4 6 8 7 8
2 2 2 2 2 2 2 2 3 3 3 3 3 3 2 2 2 2 2 2 2 2 2 3 3 3 5 5 5 4 2 1 2 2 2 3 4 4 4 4 4 5 5
2 2 2 2 2 3 2 3 3 3 3 3 3 3 2 2 3 3 3 2 2 2 2 3 3 3 5 5 4 4 1 2 2 2 2 3 3 5 6 5 4 5 5
3 3 3 3 3 3 3 3 3 3 3 3 3 3 2 2 3 3 3 2 2 2 2 3 3 3 3 4 4 3 1 2 3 3 3 4 5 6 6 4 3 5 5
3 3 3 3 2 2 3 3 3 3 3 3 3 3 3 2 3 3 2 2 2 2 2 3 3 3 3 4 4 4 1 1 2 3 3 3 6 7 6 5 3 5 5
3 3 2 2 3 2 2 2 3 3 4 3 3 3 3 3 3 3 3 2 2 2 3 3 3 3 3 4 4 4 4 3 2 3 3 4 6 7 6 5 5 6 5
2 2 1 2 2 2 2 1 3 4 3 3 4 3 4 3 3 2 2 2 1 1 2 2 3 4 3 4 6 6 5 5 3 2 4 5 6 6 5 5 7 6 3
2 2 2 2 3 3 2 2 3 3 2 3 3 3 3 3 3 2 2 2 2 2 2 3 3 3 3 3 3 3 3 4 3 3 4 5 5 4 4 5 5 4 3
2 2 1 2 3 3 3 4 3 3 3 3 3 3 3 3 3 3 2 3 3 2 2 3 3 3 4 4 6 4 3 2 2 3 2 2 2 3 3 3 3 3 3
2 2 2 2 3 3 4 4 4 2 2 3 3 2 2 2 2 2 3 4 3 4 4 4 4 4 5 7 7 6 6 5 4 2 1 2 2 2 3 3 3 3 3
Wind_Direction
226 200 186 173 163 161 164 165 158 154 144 135 137 135 147 146 83 149 166 170 168 163 158 164 159 151 174 207 207 198 203 323 339 4 327 312 294 287 284 292 295 300 299
217 198 181 170 173 177 176 171 169 166 165 163 153 146 147 157 174 113 97 138 169 176 178 178 190 186 187 200 198 166 184 277 46 92 1 327 321 307 285 284 280 290 310
211 200 186 183 179 182 183 181 177 170 165 149 123 99 84 71 69 11 316 312 235 205 190 188 184 193 189 212 219 195 182 213 260 181 169 219 268 303 291 282 285 292 295
216 203 190 187 190 192 184 178 173 166 161 153 152 151 159 181 205 206 238 296 299 279 218 202 195 199 207 221 223 202 199 185 228 264 227 221 229 270 301 299 288 289 290
214 205 198 193 191 185 176 172 164 161 159 161 163 160 159 166 160 153 152 330 340 344 323 227 206 214 218 225 230 218 211 204 208 216 226 246 264 242 260 295 304 302 279
219 203 190 165 157 156 158 157 155 158 160 160 160 161 160 158 152 153 169 264 321 325 332 307 246 235 227 227 230 229 225 223 219 222 220 219 229 240 246 279 298 299 294
187 157 150 153 151 152 156 155 155 156 159 158 162 165 165 166 173 179 187 205 265 289 293 307 287 272 251 238 225 230 237 229 226 228 233 232 238 237 244 266 287 296 299
107 138 150 155 158 155 152 154 157 155 158 159 160 154 155 163 176 183 187 200 224 251 265 278 280 276 269 266 247 242 241 236 233 241 240 244 246 243 243 247 272 297 298
74 95 102 108 128 138 149 155 153 148 152 152 142 142 150 160 167 171 170 195 229 248 266 281 283 277 271 261 253 253 252 243 238 240 242 245 250 246 247 243 237 258 292
61 67 73 74 85 105 111 116 128 137 139 135 143 143 151 158 158 149 161 209 256 264 271 290 291 288 277 259 255 259 260 251 251 248 246 250 253 252 248 245 248 241 258
71 67 60 59 71 79 91 100 107 110 114 120 121 120 124 121 121 129 187 235 263 265 264 267 276 278 276 268 262 262 263 262 265 261 254 256 256 256 256 253 253 252 252
64 64 63 61 68 72 76 85 95 99 106 111 108 108 105 100 99 104 283 287 287 285 270 269 275 279 284 275 261 267 269 263 269 271 266 270 270 264 259 255 258 261 257
72 68 65 62 65 68 69 72 77 86 87 95 97 90 86 91 88 345 318 314 300 297 294 280 276 280 282 280 271 264 267 264 264 267 267 270 268 271 270 269 270 271 274
83 78 69 58 58 62 66 67 58 65 78 83 83 79 72 71 21 334 330 318 303 295 295 288 280 281 282 280 277 276 276 278 278 273 270 272 266 268 275 279 275 277 282
80 79 77 65 56 54 56 63 55 54 70 74 63 45 38 44 33 4 334 323 316 312 298 294 301 301 288 278 276 279 284 284 292 296 288 280 285 286 285 284 285 284 285
83 69 61 64 60 56 61 61 50 42 62 66 48 33 33 34 20 355 345 340 334 330 330 319 308 304 296 296 294 295 286 287 292 296 300 302 308 311 311 307 303 295 288
109 84 68 65 59 58 74 73 50 47 57 53 37 30 31 27 4 357 6 346 333 339 333 326 324 304 300 303 302 305 304 287 284 292 305 311 318 325 320 320 320 318 311
115 88 71 48 30 40 49 55 52 49 51 43 25 19 29 20 6 3 353 339 337 337 324 316 311 308 306 312 315 318 330 305 299 299 299 300 309 316 320 321 318 310 309
103 81 57 54 44 40 47 61 45 38 39 22 5 356 8 3 357 352 339 331 340 336 325 318 309 301 301 314 322 332 337 322 319 317 315 309 304 315 323 323 317 316 317
77 67 51 50 47 29 46 62 39 29 12 351 340 340 352 347 333 322 314 313 316 313 316 318 312 299 298 320 334 341 332 320 317 323 318 315 316 317 324 318 312 313 311
72 62 53 45 24 21 49 51 32 1 338 338 341 346 345 333 320 316 308 307 313 322 317 316 321 320 324 334 338 329 316 294 311 316 317 316 320 322 326 328 318 310 311
61 54 49 20 8 26 47 32 357 334 338 343 346 346 346 341 337 332 321 319 325 334 330 329 333 337 336 339 337 334 326 315 301 301 304 310 318 325 331 333 329 328 330
52 40 52 14 4 15 32 5 326 333 341 346 343 341 341 337 333 328 324 323 331 332 320 325 325 324 330 334 338 340 338 334 320 303 308 316 327 329 333 337 336 337 334
25 22 36 13 349 353 356 327 319 329 333 328 323 324 326 325 330 326 317 312 307 301 304 307 306 310 316 323 329 329 331 333 326 321 325 332 341 346 343 340 340 337 326
359 9 13 345 330 337 338 334 333 334 331 322 317 320 320 315 322 321 308 301 278 271 288 293 292 301 306 309 317 317 313 306 296 314 326 336 331 341 336 329 327 327 328
356 353 345 336 331 334 330 328 325 317 310 315 318 315 312 310 310 316 324 324 312 324 323 318 313 308 306 315 324 327 327 326 314 322 316 313 313 314 314 315 319 319 318
Height
1476 1479 1481 1484 1487 1490 1493 1496 1499 1501 1504 1506 1508 1510 1512 1513 1515 1516 1517 1518 1519 1519 1520 1520 1520 1520 1520 1520 1520 1519 1519 1519 1518 1517 1516 1515 1515 1515 1515 1514 1514 1513 1512
1472 1475 1478 1480 1483 1486 1489 1492 1495 1498 1501 1503 1505 1507 1509 1511 1512 1513 1514 1515 1516 1516 1517 1517 1517 1517 1517 1517 1517 1516 1516 1515 1515 1515 1513 1511 1511 1510 1510 1510 1509 1509 1508
1468 1471 1473 1476 1479 1482 1485 1488 1491 1495 1498 1500 1503 1504 1506 1507 1509 1510 1511 1512 1512 1513 1514 1514 1514 1514 1514 1514 1514 1514 1513 1512 1513 1513 1513 1511 1508 1506 1505 1505 1505 1504 1503
1464 1466 1469 1472 1475 1478 1482 1485 1488 1491 1494 1497 1499 1501 1502 1503 1505 1506 1508 1509 1510 1510 1510 1511 1511 1511 1511 1511 1511 1511 1510 1510 1509 1509 1510 1510 1508 1505 1501 1500 1501 1500 1499
1460 1462 1465 1468 1472 1475 1478 1481 1485 1488 1491 1493 1496 1498 1499 1501 1502 1504 1505 1506 1506 1507 1507 1507 1508 1508 1508 1508 1508 1507 1507 1507 1506 1506 1506 1506 1505 1504 1501 1496 1495 1495 1495
1456 1459 1462 1465 1468 1471 1475 1478 1481 1484 1487 1490 1492 1494 1496 1497 1499 1500 1501 1502 1503 1503 1504 1504 1504 1504 1504 1504 1504 1504 1504 1503 1503 1503 1502 1502 1501 1500 1498 1495 1491 1490 1489
1453 1455 1458 1461 1465 1468 1471 1475 1478 1481 1484 1487 1489 1491 1493 1494 1496 1497 1498 1499 1499 1500 1500 1501 1501 1501 1501 1501 1501 1500 1500 1500 1499 1499 1498 1498 1497 1497 1495 1493 1489 1486 1484
1451 1453 1456 1459 1462 1465 1468 1471 1475 1478 1481 1484 1486 1488 1490 1492 1493 1494 1495 1496 1496 1497 1497 1497 1497 1497 1497 1497 1497 1496 1496 1496 1495 1494 1494 1494 1493 1492 1491 1490 1487 1483 1480
1451 1453 1455 1458 1460 1463 1466 1469 1472 1475 1478 1481 1483 1485 1487 1489 1490 1491 1492 1493 1493 1493 1494 1494 1493 1493 1493 1493 1492 1492 1492 1491 1491 1490 1490 1489 1488 1488 1487 1486 1485 1483 1478
1451 1453 1455 1457 1459 1462 1465 1468 1471 1473 1476 1478 1481 1482 1484 1486 1487 1488 1489 1489 1490 1490 1490 1490 1490 1489 1489 1488 1488 1488 1487 1487 1486 1486 1485 1484 1484 1483 1482 1482 1481 1480 1477
1452 1453 1455 1457 1459 1461 1464 1467 1469 1472 1474 1476 1478 1480 1482 1483 1484 1485 1486 1486 1487 1487 1486 1486 1486 1485 1485 1484 1484 1483 1483 1482 1482 1481 1480 1479 1479 1478 1477 1477 1476 1475 1473
1454 1455 1456 1457 1459 1461 1463 1466 1468 1470 1472 1475 1476 1478 1479 1480 1481 1482 1483 1483 1483 1483 1483 1482 1482 1481 1481 1480 1479 1479 1478 1478 1477 1476 1475 1475 1474 1473 1472 1472 1471 1469 1468
1455 1456 1457 1458 1460 1462 1463 1465 1467 1469 1471 1473 1474 1475 1477 1478 1479 1479 1480 1480 1480 1480 1479 1479 1478 1477 1477 1476 1475 1474 1474 1473 1472 1471 1470 1470 1469 1468 1467 1467 1465 1464 1463
1457 1457 1459 1460 1461 1462 1464 1465 1467 1468 1470 1471 1472 1473 1474 1475 1476 1477 1477 1477 1477 1476 1476 1475 1474 1473 1473 1472 1471 1470 1469 1468 1468 1467 1466 1465 1465 1463 1462 1461 1460 1459 1458
1458 1458 1459 1460 1462 1463 1464 1465 1466 1467 1468 1469 1470 1471 1472 1473 1473 1474 1474 1474 1473 1473 1472 1471 1470 1470 1469 1468 1467 1466 1465 1464 1463 1462 1462 1461 1460 1459 1459 1457 1456 1455 1453
1458 1459 1460 1460 1461 1462 1463 1464 1465 1466 1467 1468 1468 1469 1470 1470 1470 1470 1470 1470 1470 1469 1469 1468 1467 1466 1465 1464 1464 1463 1461 1460 1459 1458 1457 1457 1456 1455 1455 1454 1452 1451 1449
1458 1459 1459 1460 1461 1462 1463 1464 1465 1465 1466 1466 1466 1467 1467 1468 1468 1467 1467 1467 1466 1466 1465 1464 1463 1463 1462 1461 1460 1459 1458 1457 1455 1454 1454 1453 1452 1451 1450 1449 1448 1447 1446
1458 1459 1459 1460 1461 1462 1462 1463 1464 1464 1464 1464 1465 1465 1465 1465 1465 1464 1464 1464 1463 1462 1462 1461 1460 1459 1458 1457 1456 1455 1454 1453 1452 1451 1450 1449 1448 1447 1446 1445 1443 1442 1441
1457 1458 1459 1460 1461 1461 1462 1462 1463 1463 1463 1463 1463 1463 1463 1462 1462 1462 1461 1460 1460 1459 1459 1458 1457 1456 1454 1454 1453 1452 1451 1450 1449 1448 1447 1446 1445 1444 1444 1442 1440 1438 1437
1457 1458 1459 1459 1460 1461 1461 1461 1461 1461 1461 1461 1461 1461 1461 1460 1459 1459 1458 1458 1457 1456 1456 1455 1454 1453 1451 1451 1450 1450 1448 1447 1446 1445 1444 1443 1442 1441 1440 1439 1437 1434 1433
1457 1458 1458 1458 1459 1460 1460 1460 1460 1460 1460 1460 1459 1459 1459 1458 1457 1457 1456 1455 1454 1454 1453 1452 1451 1450 1449 1448 1447 1447 1446 1444 1443 1442 1441 1440 1439 1438 1437 1436 1434 1432 1431
1456 1457 1457 1458 1458 1458 1458 1458 1458 1458 1458 1458 1457 1457 1457 1456 1455 1454 1453 1453 1452 1451 1450 1449 1448 1447 1446 1446 1445 1444 1443 1442 1441 1439 1438 1437 1436 1435 1434 1433 1431 1430 1428
1455 1456 1456 1456 1457 1457 1457 1457 1457 1457 1456 1456 1455 1455 1454 1454 1453 1452 1451 1450 1449 1448 1447 1446 1445 1444 1443 1443 1442 1441 1440 1439 1438 1437 1435 1434 1433 1432 1431 1430 1428 1427 1425
1454 1454 1455 1455 1455 1455 1455 1455 1455 1454 1454 1453 1453 1452 1452 1451 1450 1450 1449 1448 1447 1445 1444 1443 1442 1441 1440 1439 1438 1438 1437 1436 1435 1434 1432 1431 1430 1429 1428 1427 1426 1424 1422
1453 1453 1453 1453 1453 1453 1453 1453 1453 1452 1451 1451 1450 1450 1449 1448 1447 1446 1446 1445 1444 1443 1442 1442 1441 1439 1437 1437 1436 1435 1434 1433 1432 1431 1429 1428 1427 1426 1425 1424 1423 1421 1420
1451 1452 1451 1451 1451 1451 1451 1451 1450 1449 1449 1448 1447 1446 1445 1445 1444 1443 1442 1442 1442 1441 1440 1439 1439 1437 1436 1435 1433 1432 1431 1430 1429 1428 1426 1425 1424 1423 1422 1421 1419 1418 1417